GFSMA_250_spd_021.txt.gz
Wind_Speed
24 21 23 26 29 33 33 31 32 32 27 18 15 15 14 15 13 15 19 23 22 21 27 23 14 12 9 8 6 7 9 9 11 13 11 10 5 3 4 4 4 5 7
23 24 23 26 27 30 33 33 37 33 32 36 21 18 19 19 18 17 17 20 22 22 26 26 20 17 12 13 9 5 11 12 11 15 15 12 11 7 5 5 6 5 5
24 24 23 24 25 29 30 36 38 38 34 35 39 40 21 24 24 23 22 20 23 26 23 29 27 23 22 19 14 9 8 14 15 16 17 17 16 12 10 7 5 4 4
21 22 23 24 27 27 31 34 36 40 47 44 47 40 41 20 27 28 28 27 25 26 27 24 28 28 27 25 19 16 14 13 18 19 20 20 18 18 14 11 8 7 5
25 22 23 26 29 34 34 37 37 41 42 48 46 49 53 34 22 31 32 30 30 30 29 28 28 29 29 30 25 24 22 20 17 22 22 24 22 21 18 16 13 9 6
23 25 25 25 27 35 36 38 40 41 42 41 47 47 50 56 40 26 34 35 32 32 33 31 30 33 32 34 31 29 26 25 23 21 26 26 26 24 23 20 18 14 11
27 28 28 25 26 31 36 39 39 40 41 42 42 47 51 52 52 33 26 37 39 36 35 35 33 29 35 37 38 36 34 29 27 26 25 31 30 29 26 25 22 20 16
28 30 31 31 26 29 34 39 40 42 43 43 44 43 43 49 46 50 33 24 38 42 40 39 37 35 32 40 40 40 39 37 34 34 29 29 34 33 32 29 27 23 20
30 29 30 33 32 30 32 38 41 42 43 42 42 43 44 47 46 45 45 44 22 38 44 42 43 42 39 38 41 45 45 43 41 39 36 31 35 37 35 34 31 28 25
34 32 31 32 32 33 34 34 38 43 46 46 43 46 45 42 45 45 45 42 47 22 33 45 45 46 47 45 41 43 50 49 47 45 41 39 35 38 40 39 37 34 30
38 36 36 36 35 35 39 36 37 42 49 48 47 49 47 44 41 42 43 40 39 41 42 25 44 48 49 51 49 48 49 53 55 51 47 43 43 40 41 42 42 39 36
41 40 38 37 39 41 43 41 39 41 47 55 53 48 48 49 43 42 42 39 39 35 50 46 24 40 52 54 55 54 54 54 56 59 56 51 48 47 43 44 46 44 41
46 44 41 38 41 42 42 42 41 40 46 53 55 54 51 47 52 46 42 35 31 40 42 46 45 38 31 54 59 62 61 60 60 60 64 62 57 53 48 46 47 48 45
45 44 41 44 47 45 44 45 44 45 54 56 58 57 52 50 52 47 46 44 36 38 45 46 47 52 46 32 55 66 67 68 67 64 64 65 65 62 56 51 50 51 50
47 46 46 47 49 42 42 44 48 55 55 61 63 59 50 52 53 46 52 42 43 49 48 56 47 35 39 36 36 55 70 74 74 72 68 68 67 70 65 59 55 53 54
52 50 43 44 49 46 45 50 53 54 58 62 66 61 48 49 55 48 47 41 47 52 55 67 70 48 29 27 29 47 71 79 80 79 76 70 71 72 71 66 61 58 57
53 54 51 50 46 47 53 53 55 57 62 68 77 71 60 61 51 57 45 41 52 48 51 77 86 70 57 31 36 48 70 80 83 82 80 79 73 75 75 72 67 64 59
50 58 55 54 51 56 56 61 55 63 69 81 82 73 69 63 64 48 46 49 56 63 60 79 86 83 73 53 41 57 59 51 76 83 82 83 80 74 78 76 73 68 65
40 58 58 60 67 59 58 54 65 77 81 81 77 68 66 67 60 56 50 56 54 59 67 89 89 92 83 59 44 56 59 46 51 70 81 84 84 82 78 80 76 73 70
49 62 59 62 57 62 68 74 81 85 82 73 74 73 80 53 49 67 63 62 57 74 83 90 91 87 81 65 51 51 62 58 56 59 71 82 85 88 85 80 80 78 75
53 58 64 59 62 69 76 81 82 84 84 87 87 86 76 61 58 63 54 68 70 78 84 93 83 83 80 66 55 49 54 61 55 56 63 73 83 85 89 84 78 79 79
50 61 61 66 76 80 81 83 85 87 86 90 89 86 70 65 62 65 71 80 74 85 95 95 89 81 74 60 53 56 56 58 58 50 60 70 76 84 87 88 84 78 80
56 66 70 75 78 81 80 79 79 82 84 84 83 80 73 62 70 81 81 83 88 92 94 93 89 79 70 57 47 47 53 52 54 50 52 64 68 74 80 83 87 83 76
63 61 70 70 71 74 73 72 73 73 77 79 76 67 66 77 81 82 87 91 94 94 98 87 83 80 71 55 48 46 49 44 52 50 47 57 61 65 71 80 86 87 82
59 64 64 68 71 65 64 63 67 71 74 76 65 63 80 83 85 88 91 95 97 94 91 87 82 75 69 55 43 41 41 43 48 52 43 44 60 63 72 78 87 91 88
55 59 60 63 58 59 66 62 65 69 68 63 69 80 82 82 87 89 91 94 95 90 88 84 80 77 62 50 39 35 37 40 41 50 41 51 55 61 68 77 83 91 93

GFSMA_250_spd_024.txt.gz
Wind_Speed
17 17 21 23 25 26 30 32 33 35 32 29 26 25 16 19 19 18 20 23 27 28 24 25 18 15 12 9 6 5 10 10 10 12 11 9 5 5 7 6 6 7 8
18 17 18 23 25 24 28 29 33 32 34 30 34 34 33 19 24 24 23 22 22 23 25 22 23 19 18 15 13 8 8 12 11 13 14 12 10 7 7 8 8 8 8
18 18 18 22 23 23 29 31 32 33 32 32 30 39 41 44 30 26 27 27 24 23 23 21 24 23 24 21 20 15 10 9 13 13 15 17 14 11 10 9 8 7 9
19 21 23 21 18 22 28 32 35 36 37 33 31 36 39 45 44 37 26 30 30 28 25 26 23 32 26 27 23 20 15 12 17 17 17 18 19 16 13 12 10 10 10
20 22 22 23 21 20 25 27 32 37 39 38 37 37 41 43 42 42 35 24 33 34 32 28 28 28 30 28 30 26 24 22 21 18 20 21 20 19 18 16 13 13 9
20 20 22 23 23 23 23 27 28 34 42 45 45 38 39 40 41 45 39 40 22 36 36 34 29 29 31 31 32 32 30 27 25 24 21 24 25 23 21 20 19 15 14
23 23 24 24 24 23 25 27 29 30 36 40 43 43 42 36 36 39 45 42 40 20 38 38 35 31 31 34 34 35 35 34 30 30 29 23 29 29 26 25 23 21 18
26 27 27 28 29 27 27 28 28 29 28 34 42 42 43 42 37 36 39 35 40 38 22 39 38 37 34 34 40 38 37 37 35 32 33 31 28 32 32 30 28 26 24
26 28 30 31 32 30 31 31 33 31 30 31 39 44 47 43 43 38 43 35 31 31 30 23 40 39 39 38 37 44 43 41 41 39 36 35 31 31 36 36 33 31 28
31 31 33 31 33 30 33 35 32 33 35 34 36 43 47 48 41 38 41 33 25 27 22 17 24 40 42 42 40 39 47 46 45 46 45 41 40 39 38 42 40 36 33
34 32 33 36 38 38 36 38 35 33 32 32 34 40 44 48 46 38 37 31 30 27 21 21 12 23 43 47 46 47 47 50 53 51 50 50 48 46 43 44 44 42 39
36 29 35 37 40 45 42 39 38 39 33 35 39 43 42 44 43 41 33 31 31 31 26 27 20 13 22 38 48 52 55 57 53 56 57 56 55 53 49 46 48 47 46
44 37 38 42 44 42 44 46 53 50 38 43 44 46 48 46 53 41 39 34 35 32 27 23 26 16 16 14 30 49 58 61 59 58 58 62 62 60 57 54 50 51 50
39 35 37 48 51 47 46 48 46 42 48 47 49 54 49 53 54 41 42 42 37 36 30 23 24 27 30 28 26 13 42 61 64 64 67 68 69 69 64 59 57 53 53
39 42 38 39 42 53 51 49 46 50 51 53 54 49 50 63 61 47 45 50 41 39 30 30 29 34 35 40 33 26 26 49 64 73 78 77 75 75 74 68 63 60 56
44 38 43 42 49 50 51 53 54 53 57 52 59 51 58 65 64 60 49 41 31 32 33 37 36 35 33 47 43 33 36 36 60 80 87 88 84 80 79 78 73 66 62
45 40 42 47 46 52 53 52 55 58 56 59 48 55 70 72 66 57 57 31 29 40 42 41 42 49 50 56 52 48 42 36 55 60 86 96 89 84 81 81 81 76 69
45 41 40 48 47 51 56 60 64 59 56 52 53 69 75 66 66 64 40 42 41 38 48 48 58 49 54 56 63 54 48 49 52 73 79 75 89 92 86 82 83 83 77
47 48 48 50 52 54 59 57 64 62 53 68 72 75 75 71 69 65 61 53 47 44 51 54 54 66 64 67 69 64 51 49 57 66 77 68 66 89 93 89 85 84 84
47 48 48 49 51 59 64 66 67 69 72 77 81 79 80 78 76 72 64 66 53 49 58 60 64 69 74 76 79 79 67 56 52 68 71 62 55 72 92 95 90 85 85
52 51 49 54 60 64 66 67 71 75 78 73 72 74 75 76 68 66 60 56 53 61 68 69 72 71 78 84 86 78 70 58 51 60 58 54 47 64 77 92 93 90 86
51 55 58 61 63 68 69 70 74 73 75 67 70 67 62 59 66 63 64 66 64 70 71 74 76 82 88 86 78 70 70 58 55 57 51 49 42 51 61 78 90 90 88
58 60 61 66 65 70 71 72 70 71 65 62 64 67 72 70 61 60 64 67 72 69 73 77 82 82 75 73 69 68 67 62 53 55 48 46 45 53 59 65 79 86 90
64 66 67 68 68 68 68 69 67 66 60 62 65 70 72 71 62 58 61 68 72 74 73 76 73 71 71 69 65 65 67 61 56 52 55 52 46 48 53 63 69 83 88
66 69 71 69 70 63 62 66 66 69 68 69 72 70 72 65 65 70 68 71 73 73 76 74 72 71 72 70 66 65 62 54 48 52 50 46 48 47 56 66 70 80 89
73 74 72 69 59 58 61 62 65 65 69 74 77 75 71 69 66 69 70 73 73 80 78 74 71 72 75 73 64 59 54 49 47 51 46 42 46 44 57 66 68 75 87

GFSMA_250_spd_030.txt.gz
Wind_Speed
17 23 23 24 19 20 22 24 23 25 29 32 38 36 36 38 34 21 15 31 26 23 24 26 23 17 16 13 8 8 8 7 6 9 10 8 5 5 7 4 3 4 4
19 23 26 23 22 18 16 18 19 22 26 28 34 38 33 33 36 40 32 4 28 26 22 24 29 26 22 18 16 12 10 7 6 8 11 11 8 7 8 6 6 6 6
23 23 24 23 23 22 20 23 23 23 26 32 37 40 39 35 35 33 38 26 15 21 26 24 26 31 29 24 22 20 16 12 15 12 10 11 11 10 8 8 9 9 8
21 22 22 22 24 24 24 26 25 27 28 31 32 37 40 39 35 37 32 32 35 27 18 30 27 29 35 28 28 25 22 17 12 14 11 15 12 14 11 10 11 9 10
20 21 22 20 20 20 22 24 28 26 31 29 33 35 36 36 35 35 40 31 33 37 37 14 33 28 31 33 30 30 26 24 20 19 11 9 15 14 16 14 14 12 13
19 21 19 19 19 19 23 22 28 29 32 29 31 33 34 36 33 32 37 39 34 36 44 38 19 34 29 32 34 34 32 30 26 26 24 20 16 15 16 18 18 17 16
16 19 21 15 18 20 26 29 30 28 31 33 35 34 35 36 31 30 32 38 38 32 39 43 29 25 33 31 37 35 36 34 32 32 31 26 25 19 19 19 21 20 20
17 21 24 23 21 20 26 30 30 28 30 32 35 39 39 38 39 33 29 33 37 33 41 45 40 20 25 35 35 39 37 38 39 37 32 30 27 28 25 21 23 24 23
22 22 26 25 29 21 27 35 32 30 31 36 37 38 38 41 44 40 29 27 33 32 31 36 47 39 14 22 38 42 44 40 40 38 36 36 32 27 29 29 24 25 28
24 26 26 21 20 26 32 31 34 30 33 33 37 38 40 39 39 40 38 26 26 28 29 28 28 33 31 21 17 38 43 46 45 39 41 42 41 40 34 34 34 33 29
29 31 31 29 29 30 31 32 36 37 38 36 40 42 41 38 40 37 41 35 21 27 24 31 29 33 28 26 26 24 28 45 49 48 48 44 44 45 44 41 41 40 39
30 33 36 36 35 33 31 32 37 39 40 40 42 42 42 44 41 44 42 37 29 34 40 32 33 29 32 29 29 31 30 30 41 51 51 52 50 49 48 48 48 47 45
33 35 38 39 37 34 32 35 36 41 37 39 40 43 42 43 41 47 46 37 32 36 46 43 44 40 28 29 33 33 34 30 30 30 47 55 56 56 52 54 55 54 52
36 38 40 45 45 38 36 38 42 40 37 40 41 41 42 46 49 44 40 42 43 39 61 47 41 32 29 27 36 35 37 35 34 34 31 36 51 59 65 61 60 61 61
39 41 44 45 48 44 44 41 40 42 44 48 47 47 48 50 47 42 54 54 43 63 66 53 41 36 28 29 26 34 41 45 45 42 43 43 43 52 64 71 70 67 66
43 44 47 49 52 51 44 44 45 47 50 52 53 51 51 49 56 55 52 59 62 63 59 59 37 29 31 34 30 30 26 30 37 46 48 48 49 49 60 69 76 78 74
42 47 50 52 54 55 49 47 47 51 51 51 56 56 52 54 58 59 57 60 57 57 54 45 40 28 45 47 41 39 42 34 32 33 33 34 42 57 53 63 72 80 84
46 48 50 55 57 54 52 52 50 50 54 57 60 58 56 56 56 56 56 54 53 51 52 49 48 49 49 47 33 39 49 42 42 41 46 47 45 42 51 57 65 77 86
50 52 54 55 57 56 54 52 52 53 55 56 61 59 59 58 58 57 57 53 55 58 58 52 54 59 55 44 41 39 42 52 52 51 55 55 56 65 57 54 55 74 83
53 54 57 59 56 53 53 52 54 55 57 59 62 61 63 59 57 58 57 59 59 61 60 63 65 62 55 46 39 49 54 54 58 63 71 70 66 65 68 68 62 62 73
56 57 59 62 60 56 54 54 56 58 61 60 66 63 60 56 57 58 57 59 63 64 65 67 66 64 64 54 45 45 60 65 70 75 72 73 73 75 74 69 67 66 65
60 61 63 64 60 59 57 56 56 56 60 65 64 65 62 61 60 59 60 63 67 71 72 74 72 68 58 56 57 56 59 68 73 79 76 78 74 75 75 71 69 67 70
65 66 67 66 64 62 57 60 60 63 65 65 65 65 61 59 59 62 65 69 69 72 75 72 71 69 69 70 60 65 69 75 71 74 75 74 74 70 69 70 73 72 65
71 71 71 71 68 64 63 61 62 67 67 66 66 64 64 64 67 71 75 76 82 88 81 78 76 76 75 69 68 68 73 76 77 73 73 69 70 71 71 70 68 60 55
76 76 74 72 73 70 64 64 69 70 68 70 69 69 66 68 71 79 82 84 88 84 82 80 75 70 69 67 66 67 68 65 70 71 76 72 73 73 69 62 55 47 42
80 80 77 73 74 74 71 74 73 71 72 77 75 67 66 68 73 84 88 88 85 83 82 77 71 67 66 65 64 66 67 69 72 75 81 76 73 67 53 51 47 39 35

GFSMA_250_spd_033.txt.gz
Wind_Speed
17 15 18 17 13 14 17 20 21 21 27 27 19 16 20 22 25 25 22 25 16 33 24 23 25 23 20 17 14 12 9 10 10 12 12 10 7 8 9 6 6 4 2
17 18 16 16 16 15 14 19 22 23 24 26 23 17 14 20 22 20 25 22 15 9 18 16 23 27 26 23 21 18 14 9 10 10 12 12 11 9 9 9 7 6 5
17 17 18 15 15 18 20 20 19 26 25 24 29 28 25 21 23 25 21 23 24 20 10 26 25 27 30 29 26 23 21 15 13 13 12 13 13 11 9 10 9 9 8
15 18 18 16 15 17 20 21 22 24 24 24 26 30 32 34 26 23 23 20 19 24 26 13 25 28 28 34 31 28 26 22 19 15 16 12 11 14 12 10 10 10 10
18 20 14 13 15 17 23 27 26 24 24 25 25 26 26 31 32 26 26 27 23 29 37 32 16 25 31 30 34 30 30 29 25 20 15 17 16 15 15 14 13 14 12
19 19 21 15 15 14 21 27 29 26 23 27 24 27 29 29 32 33 30 29 27 27 27 31 34 12 30 30 27 34 33 34 31 26 21 23 15 14 17 17 17 17 16
17 18 22 21 18 14 15 24 28 26 23 25 27 28 30 31 30 32 34 28 29 28 32 35 38 36 10 29 31 30 37 33 34 33 28 28 25 22 19 18 19 19 20
20 24 24 22 21 21 22 29 29 27 24 25 26 31 33 31 30 32 31 34 28 27 30 29 36 37 34 12 32 32 36 32 35 33 34 34 34 32 28 25 21 21 22
23 26 27 27 27 28 28 27 27 28 28 31 27 29 32 31 32 32 29 33 31 22 24 32 29 32 45 24 13 31 35 33 36 38 39 37 37 34 31 29 29 24 25
25 27 28 31 35 34 31 31 30 30 30 32 27 29 28 29 31 33 30 32 29 24 20 28 31 26 38 35 25 16 32 35 37 38 42 41 38 39 38 34 32 34 30
26 30 32 35 37 40 39 35 35 35 33 33 32 30 32 33 32 31 33 35 31 22 28 36 25 24 38 34 21 22 23 22 30 39 41 45 44 43 42 42 40 39 36
25 28 33 36 38 40 40 41 37 35 33 32 32 36 36 38 35 33 30 32 35 42 41 35 27 36 33 30 22 23 26 31 30 29 32 41 44 48 48 44 45 46 45
28 32 33 36 39 42 44 44 42 36 34 34 35 38 39 42 44 41 37 34 41 39 45 38 24 39 38 28 18 25 34 34 36 39 35 34 34 41 49 53 54 53 50
33 33 35 36 40 42 45 44 46 45 39 39 42 44 45 46 47 44 42 40 41 43 38 39 33 44 35 23 25 18 27 29 34 40 46 40 39 39 44 51 55 58 59
34 37 38 40 40 44 49 53 48 44 42 41 43 46 48 48 50 47 47 43 40 41 42 38 36 39 41 34 21 23 29 29 31 36 45 50 47 48 48 49 54 60 63
37 39 39 42 45 46 49 53 54 49 46 48 48 48 47 49 50 51 51 47 44 42 39 39 38 40 39 38 32 34 39 41 41 34 35 42 48 59 57 52 52 52 60
42 39 41 44 47 50 52 54 55 53 48 48 48 49 51 51 52 51 48 46 44 45 46 45 43 42 44 44 36 43 52 36 39 52 54 45 37 39 49 58 61 60 61
46 44 45 46 48 51 55 55 58 56 54 53 52 53 55 55 54 53 49 47 45 46 47 49 49 48 47 44 46 51 47 42 40 44 55 58 59 55 49 44 48 56 63
48 47 48 50 51 52 55 56 57 56 58 56 56 57 57 58 60 57 52 46 46 46 47 50 52 56 56 51 53 56 54 52 51 45 51 53 61 65 71 67 61 56 53
52 51 51 53 55 55 58 60 61 58 60 60 59 60 61 61 60 60 52 51 51 52 50 52 56 62 62 62 61 59 57 50 45 48 48 59 63 63 71 72 71 71 70
58 57 55 56 57 59 61 64 63 62 62 60 60 60 63 65 59 57 54 54 56 54 58 59 63 65 68 71 68 61 59 60 52 55 54 59 67 71 75 74 75 77 74
60 60 59 61 61 62 65 66 67 66 63 64 63 65 67 63 63 58 55 59 60 61 62 63 66 74 79 74 73 67 62 60 59 67 63 61 67 69 73 74 80 82 77
62 64 65 66 67 65 66 68 69 68 65 65 66 69 68 62 61 56 53 57 62 64 67 68 80 81 80 77 72 67 62 61 62 65 63 63 73 74 73 78 78 76 70
66 66 69 71 71 71 69 69 75 74 69 68 68 73 70 58 58 51 54 57 65 69 71 80 84 85 80 76 71 70 68 64 62 63 61 63 71 73 71 73 74 72 70
70 68 70 74 78 78 75 76 75 72 71 68 71 70 70 62 62 58 63 65 69 78 86 85 86 84 80 78 77 75 72 67 65 67 72 66 69 69 71 75 77 77 74
73 72 73 76 81 88 80 82 77 71 73 72 76 76 72 72 67 67 62 69 80 84 89 88 88 85 84 85 83 81 78 74 73 73 79 72 73 74 74 77 78 76 69